Location: Heilwood
(40.6210°N, 78.9150°W)
Time: 18:19:43
(UTC-04:00)

BREEZE-M DEB (TANK) - Visible Passes

Search period start: 01 October 2014 00:00
Search period end: 11 October 2014 00:00
Orbit: 277 x 16058 km, 49.5° (Epoch: 29 September)

Date Brightness Start Highest point End Pass type
(mag) Time Alt. Az. Time Alt. Az. Time Alt. Az.
01 Oct 7.7 00:00:00 36° WNW 01:55:57 81° SW 02:36:36 10° SSE visible
01 Oct 8.7 18:03:12 10° SW 18:57:05 87° SE 21:32:49 10° ENE visible
01 Oct 7.6 23:34:26 10° WNW 02:13:20 76° WSW 02:52:00 10° SSE visible
02 Oct 8.7 18:18:58 10° SW 19:17:12 89° NW 21:50:59 10° E visible
02 Oct 7.6 23:54:13 10° WNW 02:29:54 70° WSW 03:07:12 10° SSE visible
03 Oct 8.6 18:34:51 10° SW 19:38:44 85° NW 22:08:50 10° E visible
04 Oct 7.4 00:14:14 10° WNW 02:45:44 65° WSW 03:22:11 10° SSE visible
04 Oct 8.5 18:50:52 10° WSW 20:02:05 82° NNW 22:23:15 14° E visible
05 Oct 7.4 00:34:28 10° WNW 03:00:53 59° WSW 03:36:56 10° S visible
05 Oct 8.4 19:07:02 10° WSW 20:27:51 80° NNW 22:34:48 23° E visible
06 Oct 7.5 00:54:55 10° WNW 03:15:23 54° WSW 03:51:27 10° S visible
06 Oct 8.4 19:23:20 10° WSW 20:56:41 78° NNW 22:46:59 30° E visible
07 Oct 7.5 01:15:34 10° NW 03:29:15 48° W 03:37:26 47° WSW visible
07 Oct 8.3 19:39:48 10° WSW 21:28:10 78° N 22:59:33 37° E visible
08 Oct 7.6 01:36:27 10° NW 03:42:31 43° W 03:50:03 42° WSW visible
08 Oct 8.3 19:56:25 10° W 21:59:30 78° NNE 23:12:22 44° ESE visible
09 Oct 8.3 01:57:37 10° NW 03:55:11 38° W 04:02:56 37° W visible
09 Oct 8.2 20:13:13 10° W 22:28:00 80° NNE 23:25:24 50° ESE visible
10 Oct 8.4 02:19:10 10° NW 04:07:18 33° W 04:16:00 32° W visible
10 Oct 8.2 20:30:11 10° W 22:53:21 82° NNE 23:38:36 56° ESE visible
